Weather History for Sheridan, WY

Change the Weather History Date:

Thursday, May 23, 2013

  Actual Average Record
Temperature  
Mean Temperature 59 °F 54 °F  
Max Temperature 69 °F 69 °F 88 °F (1951)
Min Temperature 48 °F 40 °F 27 °F (1966)
Degree Days  
Heating Degree Days 6 11  
Month to date heating degree days 258 317  
Since 1 July heating degree days 7350 7418  
Cooling Degree Days 0 0  
Month to date cooling degree days 8 0  
Year to date cooling degree days 8 0  
Growing Degree Days 8 (Base 50)    
Moisture  
Dew Point 45 °F    
Average Humidity 62    
Maximum Humidity 80    
Minimum Humidity 44    
Precipitation  
Precipitation 0.00 in 0.07 in 1.35 in (1909)
Month to date precipitation 1.21 1.74  
Year to date precipitation 5.50 5.42  
Sea Level Pressure  
Sea Level Pressure 29.75 in    
Wind  
Wind Speed 32 mph (SE)    
Max Wind Speed 47 mph    
Max Gust Speed 60 mph    
Visibility 10 miles    
Events      
T = Trace of Precipitation, MM = Missing Value Source: NWS Daily Summary

Daily Weather History Graph

Daily Weather History Graph

Search for Another Location

Airport:

Trip Planner

Search our weather history database for the weather conditions in past years. The results will help you decide how hot, cold, wet, or windy it might be!

Date:

Astronomy

May. 23, 2013 Rise Set
Actual Time 5:31 AM MDT 8:38 PM MDT
Civil Twilight 4:56 AM MDT 9:13 PM MDT
Nautical Twilight 4:11 AM MDT 9:59 PM MDT
Astronomical Twilight 3:16 AM MDT 10:54 PM MDT
Moon 7:11 PM MDT (5/23) 4:22 AM MDT (5/23)
Length of Visible Light 16h 17m
Length of Day
15h 07m
Waxing Gibbous, 97% of the Moon is Illuminated
May 23
Waxing Gibbous
May 24
Full
May 31
Last Quarter
Jun 8
New
Jun 16
First Quarter

Hourly Weather History & Observations

Time (MDT) Temp. Dew Point Humidity Pressure Visibility Wind Dir Wind Speed Gust Speed Precip Events Conditions
12:53 AM 52.0 °F 42.1 °F 69% 29.90 in 10.0 mi SE 25.3 mph 35.7 mph N/A   Clear
1:53 AM 51.1 °F 42.1 °F 71% 29.87 in 10.0 mi SE 35.7 mph 50.6 mph N/A   Clear
2:53 AM 48.9 °F 42.1 °F 77% 29.85 in 10.0 mi SE 31.1 mph 50.6 mph N/A   Clear
3:53 AM 48.9 °F 42.1 °F 77% 29.84 in 10.0 mi SE 39.1 mph 51.8 mph N/A   Clear
4:53 AM 48.0 °F 42.1 °F 80% 29.81 in 10.0 mi SE 40.3 mph 54.1 mph N/A   Clear
5:53 AM 48.0 °F 42.1 °F 80% 29.82 in 10.0 mi SE 36.8 mph 52.9 mph N/A   Clear
6:53 AM 48.9 °F 42.1 °F 77% 29.83 in 10.0 mi SE 36.8 mph 49.5 mph N/A   Clear
7:53 AM 50.0 °F 43.0 °F 77% 29.82 in 10.0 mi SE 35.7 mph 54.1 mph N/A   Clear
8:53 AM 52.0 °F 43.0 °F 71% 29.82 in 10.0 mi SSE 32.2 mph 48.3 mph N/A   Clear
9:53 AM 54.0 °F 43.0 °F 66% 29.82 in 10.0 mi SE 32.2 mph 47.2 mph N/A   Clear
10:53 AM 57.0 °F 44.1 °F 62% 29.81 in 10.0 mi SE 34.5 mph 46.0 mph N/A   Clear
11:53 AM 59.0 °F 45.0 °F 60% 29.79 in 10.0 mi SE 35.7 mph 44.9 mph N/A   Clear
12:53 PM 62.1 °F 45.0 °F 53% 29.78 in 10.0 mi SE 29.9 mph 48.3 mph N/A   Clear
1:53 PM 64.9 °F 46.0 °F 50% 29.76 in 10.0 mi SE 33.4 mph 42.6 mph N/A   Clear
2:53 PM 66.9 °F 46.9 °F 49% 29.73 in 10.0 mi SSE 24.2 mph 41.4 mph N/A   Clear
3:53 PM 69.1 °F 46.0 °F 44% 29.69 in 10.0 mi SSE 36.8 mph 49.5 mph N/A   Clear
4:53 PM 66.9 °F 46.9 °F 49% 29.70 in 10.0 mi SE 32.2 mph 49.5 mph N/A   Clear
5:53 PM 66.0 °F 46.9 °F 50% 29.68 in 10.0 mi SSE 35.7 mph 50.6 mph N/A   Clear
6:53 PM 66.0 °F 48.0 °F 52% 29.66 in 10.0 mi SSE 27.6 mph 40.3 mph N/A   Clear
7:53 PM 64.9 °F 48.0 °F 54% 29.64 in 10.0 mi SSE 27.6 mph 40.3 mph N/A   Clear
8:53 PM 64.0 °F 48.0 °F 56% 29.63 in 10.0 mi SSE 29.9 mph 46.0 mph N/A   Clear
9:53 PM 63.0 °F 48.0 °F 58% 29.61 in 10.0 mi SSE 28.8 mph 48.3 mph N/A   Clear
10:53 PM 61.0 °F 48.0 °F 62% 29.61 in 10.0 mi SSE 26.5 mph 49.5 mph N/A   Clear
11:53 PM 59.0 °F 48.0 °F 67% 29.62 in 10.0 mi SSE 29.9 mph 44.9 mph N/A   Clear